Location: Chuathbaluk
(61.5726°N, 159.2454°W)
Time: 12:28:18
(UTC+00:00)

N. Korean satellite - Pass Details

Date: 05 November 2020
Orbit: 453 x 503 km, 97.2° (Epoch: 04 December)

Event Time Altitude Azimuth Distance (km) Brightness Sun altitude
Rises 04:16:29 0° 208° (SSW) 2,504 10.7 -13.4°
Reaches altitude 10° 04:19:06 10° 230° (SW) 1,623 10.1 -13.7°
Maximum altitude 04:21:25 17° 272° (W) 1,265 9.8 -14.0°
Drops below altitude 10° 04:23:44 10° 314° (NW) 1,618 9.8 -14.2°
Sets 04:26:21 0° 336° (NNW) 2,493 10.4 -14.5°
